Regional Weather Roundup
Issued by NWS San Diego, CA

Home | Current Version | Previous Version | Text Only | Print | Product List | Glossary On
Versions: 1 2 3 4 5 6 7 8 9 10 11 12 13 14 15 16 17 18 19 20 21 22 23 24 25 26 27
000
ASUS46 KSGX 280210
RWRSGX

SAN DIEGO HOURLY WEATHER ROUNDUP
NATIONAL WEATHER SERVICE SAN DIEGO CA
600 PM PST FRI JAN 27 2023

NOTE: "FAIR" INDICATES FEW OR NO CLOUDS BELOW 12,000 FEET WITH NO
SIGNIFICANT WEATHER AND/OR OBSTRUCTIONS TO VISIBILITY.

CAZ042-043-060-061-PZZ750-775-280300-

GREATER SAN DIEGO AREA

CITY           SKY/WX    TMP DP  RH WIND       PRES   REMARKS
SAN DIEGO AP   PTCLDY    58  46  64 N6        30.03R
BROWN FIELD    CLEAR     55  35  47 W3        30.01R
MIRAMAR MCAS   CLEAR     53  46  77 N3        30.01S
MONTGOMERY FLD CLEAR     56  45  66 NW6       30.02R
GILLESPIE FLD  CLEAR     57  34  41 W6        30.02R
LEMON GROVE      N/A    N/A N/A N/A CALM      29.99R

$$

NORTH SAN DIEGO COUNTY

CITY           SKY/WX    TMP DP  RH WIND       PRES   REMARKS
CAMP PENDLETON CLEAR     58  32  37 S3        30.01R
OCEANSIDE AP   CLEAR     54  50  86 CALM      30.00S
OCEANSIDE HBR    N/A     57  53  87 CALM      30.07S
VISTA            N/A     56  45  66 CALM      30.00S
CARLSBAD       CLEAR     55  46  71 CALM      30.00S
ENCINITAS        N/A     54  49  82 CALM        N/A
LA JOLLA SCRIP   N/A     55  50  83 CALM      30.01S
FALLBROOK      FAIR      54  39  58 SE5       30.01S
ESCONDIDO        N/A     59  43  55 CALM      30.01S
SAN MARCOS       N/A     57  49  74 CALM      30.04S
RANCHO BERNARD   N/A     56  46  69 CALM      30.01S
POWAY            N/A     55  40  57 N1        30.04S

$$

EAST SAN DIEGO COUNTY

CITY           SKY/WX    TMP DP  RH WIND       PRES   REMARKS
RAMONA         CLEAR     48  33  56 CALM      30.01S
SANTEE           N/A     58  39  49 CALM      29.98S
LA MESA          N/A     57  37  47 CALM      29.96S
EL CAJON         N/A     60  34  38 E5        29.90R
ALPINE           N/A     55  32  41 CALM      30.23R
DESCANSO N       N/A     44  29  56 NE5       30.05R

$$

ORANGE COUNTY AND THE LOS ANGELES BASIN

CITY           SKY/WX    TMP DP  RH WIND       PRES   REMARKS
JOHN WAYNE AP  CLEAR     60  41  49 SW5       30.00S
LAGUNA BEACH     N/A     53  43  67 N1        30.00R
LAKE FOREST FR   N/A     56  26  31 W1        29.89R
SANTA ANA        N/A     59  40  48 S1        30.00R
HUNTINGTON BCH   N/A     57  52  83 CALM      30.00R
LOS ALAMITOS   FAIR      55  50  85 SE5       29.97S
FULLERTON      CLEAR     61  43  51 S5        29.99S
LONG BEACH     CLEAR     62  37  39 W3        30.00S
L.A. AP        CLEAR     56  49  77 SW8       30.00S
L.A. DOWNTOWN  CLEAR     60  38  43 CALM      30.00S

$$

THE INLAND EMPIRE

CITY           SKY/WX    TMP DP  RH WIND       PRES   REMARKS
CORONA         CLEAR     57  31  37 W8        29.99S
UPLAND AP      FAIR      59  27  29 W6        29.99S
CHINO          CLEAR     53  32  44 W7        30.00S
ONTARIO        CLEAR     59  28  30 SW8       29.99R
SAN BERNARDINO CLEAR     63  23  22 SW3       29.99R
RIVERSIDE AP   CLEAR     58  28  32 CALM      29.99R
MARCH ARB      CLEAR     55  33  43 W6        29.99R
HORSETHIEF CYN   N/A     53  31  43 SW3       29.99R
PERRIS           N/A     59  31  34 CALM      30.00S
LAKE ELSINORE    N/A     57  36  45 CALM      29.95R
HEMET AP       FAIR      54  37  52 SW6       30.00R
FRENCH VALLEY  FAIR      54  36  50 S8        30.01R
TEMECULA         N/A     58  43  57 CALM      30.04R

$$

SAN BERNARDINO AND RIVERSIDE COUNTY MOUNTAINS

CITY           SKY/WX    TMP DP  RH WIND       PRES   REMARKS
BIG BEAR AP    CLEAR     34  16  47 CALM      30.08S
BIG BEAR LAKE    N/A     35  18  50 W2        30.15F
WRIGHTWOOD       N/A     40   9  28 CALM      30.38S
ANGELUS OAKS     N/A     40  22  47 CALM      29.97F
IDYLLWILD        N/A     41  26  54 CALM      30.01F

$$

SOUTHERN DESERT INCLUDING THE COACHELLA VALLEY

CITY           SKY/WX    TMP DP  RH WIND       PRES   REMARKS
PALM SPRINGS   CLEAR     62  26  25 CALM      30.01S
INDIO            N/A     61  32  33 CALM      29.99S
THERMAL        CLEAR     50  26  39 S5        29.99S
BORREGO AP     FAIR      55  18  22 CALM      29.99S
OCOTILLO WELLS   N/A     59  22  24 CALM      29.94S
CANEBRAKE        N/A     58  21  24 SW3       29.97S
BLYTHE         CLEAR     58  25  28 SW3       30.00F
IMPERIAL AP    CLEAR     62  25  24 CALM      29.98F
EL CENTRO NAS  CLEAR     56  24  29 E7        30.00S
YUMA AZ        CLEAR     57  24  28 S5        30.00S

$$

UPPER DESERT

CITY           SKY/WX    TMP DP  RH WIND       PRES   REMARKS
VICTORVILLE AP CLEAR     55  19  24 W7        30.01F
HESPERIA         N/A     55  23  28 W12       29.84F
APPLE VALLEY     N/A     54  23  29 CALM      30.08F
PALMDALE       CLEAR     55  20  25 N10       30.00S
LANCASTER      CLEAR     54  25  32 W23       29.98F
EDWARDS AFB    CLEAR     55  23  28 NW15      29.97R
DAGGETT        CLEAR     51  21  30 NE6       29.98F
29 PALMS N     CLEAR     52  21  29 S8        30.05S
29 PALMS JTNP    N/A     53  21  28 CALM      29.96F
NEEDLES        CLEAR     53  28  38 SW5       29.99F

$$

REGIONAL REPORTS

CITY           SKY/WX    TMP DP  RH WIND       PRES   REMARKS
SANTA BARBARA  CLEAR     56  50  80 SE5       29.97S
SANDBERG       CLEAR     43  23  45 NW21      30.05F
LAS VEGAS NV   PTCLDY    51  22  31 SE5       29.97F
PHOENIX AZ     PTCLDY    58  15  18 W5        29.98F
TIJUANA        PTCLDY    54  39  58 W5        30.04R
ENSENADA NW      N/A     57  32  38 NE6       29.97R

$$

OFFSHORE ISLANDS

CITY           SKY/WX    TMP DP  RH WIND       PRES   REMARKS
CATALINA ARPT  CLEAR     54  33  45 SW8       30.02S
SAN CLEMENTE I PTCLDY    56  46  69 W8        30.03S
SAN NICOLAS IS   N/A    N/A N/A N/A NW23G32   30.00S

$$

MARINE AND OFFSHORE BUOY REPORTS

STATION/POSITION SKY/WX   TEMP    WIND        PRES    VSBY  SWELL
                          AIR SEA DIR/SP/G                  HT/PER/DIR
                          (F)     (DEG/KT/KT) (MB)    (MI)  (FT/S/D)
TANNER BANKS               57     310/ 16/ 19 1015.9R         5/280/19
S CLEMENTE BASIN           58 59  280/ 12/ 14 1015.6S         3/230/14
SAN NICOLAS IS.               56                N/A           5/290/18
SO. S. ROSA ISLA           55 56  300/ 19/ 23 1015.9R         7/290/17
W. S. BARBARA CH           54 56  320/ 21/ 27 1015.9F         5/270/17
M. S. BARBARA CH           58 57  280/ 16/ 17 1014.5F
S. MONICA BASIN            56 58  250/  4/  4 1016.1F         3/290/19
S PEDRO CHANNEL               58                N/A           3/260/20
OCEANSIDE OFFSHR              58                N/A           2/200/14
TORREY PINES OTR              59                N/A           3/200/15
SAN DIEGO BAY                 58              1016.2R
IMPERIAL BEACH                57                N/A           2/260/13
POINT LOMA SOUTH              58                N/A           3/190/15

$$




USA.gov is the U.S. government's official web portal to all federal, state and local government web resources and services.